Вернуться в каталог

OBJECT A

АктивенSSO
NORAD 100129·UNKNOWN·🇨🇳 China

Запущен Jul 22, 2026 с Yellow Sea Launch Area

Loading…

Ближайшие Пролёты (ближайшие 24 часа)

TLE

СвежийSource: Space-Track

Эпоха: Sep 14, 2026, 04:38 UTC

1 A0129U 26168A   26257.19372103  .00004121  00000-0  25946-3 0  9990
2 A0129  97.5352 337.9953 0019423 143.7557 216.4993 15.09576333  8166

Отслеживайте OBJECT A в реальном времени с AllMySat

Download on the App Store